ICEYE-X18

导读 | 豆包AI

ICEYE-X18是由巴西(BR)于2022年5月25日发射的合成孔径雷达卫星,隶属于芬兰ICEYE公司的商业SAR卫星星座。该卫星具备多模式成像能力,最高分辨率可达0.5米,支持聚束、条带、扫描等多种工作模式,可满足灾害监测、海事管控、边境监视等不同应用场景需求,能全天候全天时获取地球观测影像,为全球用户提供高分辨率遥感数据服务。

基本信息
目录编号:
52749
目录名称:
ICEYE-X18
国际标识:
2022-057T
轨道中心:
EARTH
卫星名称:
ICEYE-X18
卫星全名:
--
卫星状态:
已陨落 最后检测时间 2025-03-14
发射日期:
2022-05-25 UTC
国别 :
巴西 (BR)
星等 :
--
轨道信息
数据来源 国际轨道数据
星历时间: 2025-03-12T02:12:12+0800
轨道信息已过期388天
半长轴: 6530.254km
偏心率: 0.0011682
轨道倾角: 97.545°
近地点辐角 275.896°
升交点赤经 211.798°
平近点角 84.101°
近地点: 144.49km
远地点: 159.748km
周期: 87.530分钟
每日圈数: 16.451584
详细信息
使用方式:
暂无